Location: Ballard
(38.3614°N, 94.1431°W)
Time: 09:53:34
(UTC-06:00)

Envisat - Pass Details

Date: 28 October 2019
Orbit: 764 x 766 km, 98.1° (Epoch: 18 November)

Event Time Altitude Azimuth Distance (km) Brightness Sun altitude
Rises 19:10:54 0° 161° (SSE) 3,217 6.1 -10.2°
Reaches altitude 10° 19:13:12 10° 159° (SSE) 2,295 5.3 -10.7°
Maximum altitude 19:18:14 74° 76° (ENE) 799 2.9 -11.7°
Drops below altitude 10° 19:23:19 10° 351° (N) 2,309 5.5 -12.6°
Sets 19:25:38 0° 350° (N) 3,239 6.3 -13.1°
